Miscellaneous Local Product
Issued by NWS North Platte, NE

Home | Current Version | Previous Version | Text Only | Print | Product List | Glossary On
Versions: 1 2 3 4 5 6 7 8 9 10 11 12 13 14 15 16 17 18 19 20 21 22 23 24 25 26 27 28 29 30 31 32 33 34 35 36 37 38 39 40 41 42 43 44 45 46 47 48 49 50
000
AXUS43 KLBF 260210
MISLBF


WESTERN AND NORTH CENTRAL NEBRASKA HOURLY WEATHER ROUNDUP
NATIONAL WEATHER SERVICE NORTH PLATTE NE
900 PM CDT WED APR 25 2018

NOTE: "FAIR" INDICATES FEW OR NO CLOUDS BELOW 12,000 FEET WITH NO
SIGNIFICANT WEATHER AND/OR OBSTRUCTIONS TO VISIBILITY.

NOTE: STATIONS NOT REPORTING VARIABLES SUCH AS SKY/WEATHER OR
PRESSURE ARE PROVIDED BY RAWS AND APRS NETWORKS AND ARE NOT UNDER
NATIONAL WEATHER SERVICE QUALITY CONTROL.

...OBSERVATIONS IN AND NEAR THE EASTERN PANHANDLE OF NEBRASKA...

CITY           SKY/WX    TMP DP  RH WIND       PRES   REMARKS
PINE RIDGE     CLOUDY    58  27  30 S10       29.89F
GORDON         FAIR      52  33  47 S6        29.91F
CHADRON        MOCLDY    56  33  42 S13       29.87F
ALLIANCE       MOCLDY    47  34  60 MISG      29.93F
SIDNEY         PTCLDY    46  31  55 S9        29.99F
CRESCENT LAKE    N/A     55  33  44 S7          N/A
$$

...OBSERVATIONS IN NORTHERN NEBRASKA AND FAR SOUTHERN SOUTH DAKOTA...

CITY           SKY/WX    TMP DP  RH WIND       PRES   REMARKS
WINNER         FAIR      55  30  38 S10       29.91F
VALENTINE      CLOUDY    58  27  30 S9        29.92F
AINSWORTH      MOCLDY    49  32  51 S10       29.96F
O`NEILL        CLOUDY    53  32  45 SE7       30.00F
THEDFORD       PTCLDY    55  27  33 S9        29.98F
BROKEN BOW     CLOUDY    51  35  54 SE7       30.00F
ORD            CLOUDY    47  34  60 SW3       30.01F
ALBION         CLOUDY    47  34  60 SE3       30.03F
VALENTINE NWR    N/A     57  25  29 S7          N/A
HALSEY           N/A     57  24  28 S5          N/A
BUTTE            N/A     50  33  51 SE9         N/A
CHAMBERS         N/A     47  29  49 S3          N/A
EWING            N/A     49  34  56 CALM        N/A
$$

...OBSERVATIONS IN SOUTHWEST NEBRASKA AND FAR NORTHEAST COLORADO...

CITY           SKY/WX    TMP DP  RH WIND       PRES   REMARKS
WRAY           FAIR      52  32  46 S6        30.04S
HOLYOKE        FAIR      54  34  47 S10       30.03S
IMPERIAL       CLEAR     48  33  56 SE8       30.02F
OGALLALA       PTCLDY    55  36  49 S8        30.00S
NORTH PLATTE   PTCLDY    49  33  54 S5        30.01F
MCCOOK         PTCLDY    56  31  38 SE5       30.04S
LEXINGTON      MOCLDY    51  35  55 S7        30.03F
STAPLETON        N/A     50  32  49 CALM        N/A
GOTHENBURG       N/A     59  26  28 S3          N/A
CALLAWAY         N/A     56  36  47 SE6         N/A
$$

...OBSERVATIONS IN CENTRAL LINCOLN COUNTY AREA...

CITY           SKY/WX    TMP DP  RH WIND       PRES   REMARKS
N.P. AIRPORT   PTCLDY    49  33  54 S5        30.01F
N.P. DOWNTOWN    N/A     55  31  39 CALM        N/A
N.P. SOUTHEAST   N/A     53  30  42 S3          N/A
N.P. HILLCREST   N/A     54  32  43 SE5         N/A
$$

...OBSERVATIONS ACROSS THE ROCKIES AND WESTERN HIGH PLAINS...

CITY           SKY/WX    TMP DP  RH WIND       PRES   REMARKS
RAPID CITY     CLOUDY    63  24  22 SW7       29.85S
SCOTTSBLUFF    PTCLDY    56  35  45 SE9       29.92F
CHEYENNE       PTCLDY    54  23  30 SW13      30.04F
DENVER         PTCLDY    51  26  37 SE9       30.03S
BERTHOUD PASS  FAIR      32  21  64 W29G38    30.35F WCI  18
MONARCH PASS   CLEAR     37   1  22 W32G38    30.45S WCI  25
ASPEN          CLEAR     55   9  16 NW8       30.16S
STEAMBOAT      FAIR      56  19  23 NW8       30.12S
LARAMIE        MOCLDY    53   8  16 W14       30.07F
CASPER         MOCLDY    57  15  19 W10       29.97S
$$

...OBSERVATIONS ACROSS THE NORTHERN PLAINS...

CITY           SKY/WX    TMP DP  RH WIND       PRES   REMARKS
BISMARCK       MOCLDY    61  29  29 SW9       29.80R
FARGO          FAIR      56  36  47 S13       29.84F
PIERRE         CLOUDY    54  32  43 SE12      29.85F
SIOUX FALLS    CLOUDY    49  32  52 CALM      29.99F
$$

...OBSERVATIONS ACROSS THE CENTRAL AND SOUTHERN PLAINS...

CITY           SKY/WX    TMP DP  RH WIND       PRES   REMARKS
OMAHA          PTCLDY    55  32  41 W6        30.02S
GRAND ISLAND   CLEAR     51  30  44 SE5       30.05S
KANSAS CITY    CLOUDY    49  46  90 NW3       30.06R
WICHITA        CLOUDY    48  44  86 N10       30.09S
DODGE CITY     CLEAR     48  36  63 NE3       30.09F
OKLAHOMA CITY  MOCLDY    50  42  74 N12       30.11R
DALLAS         PTCLDY    54  49  83 W9        30.10S
AMARILLO       CLEAR     54  31  41 NE6       30.14S
$$




USA.gov is the U.S. government's official web portal to all federal, state and local government web resources and services.